Wind_Speed
33 34 33 30 27 26 24 25 26 24 22 22 21 20 16 14 15 15 14 13 13 12 12 15 18 21 21 19 21 23 21 17 15 16 16 16 16 16 17 18 16 15 13 13 11 10 9 10 10 9 10 12 14 15 15 14 14 15 14 14 15 15 14 14 15 15 16 18 20 21 22 23 23 24 24 24 24 24 23 22 21 20 20 19 18 17
33 33 29 26 27 27 28 29 29 27 24 23 24 22 19 16 16 16 15 13 13 13 13 16 18 20 22 21 22 23 21 17 16 16 16 16 16 17 18 19 18 16 14 14 13 11 9 10 11 10 10 12 14 15 15 15 15 15 15 14 14 14 15 15 16 16 18 20 22 24 25 24 24 24 24 24 23 22 21 20 19 18 18 17 16 15
30 28 25 26 28 30 32 33 32 30 28 26 25 25 22 20 18 18 16 12 12 13 13 16 20 22 23 22 22 23 21 19 18 18 18 17 17 17 18 18 19 17 15 15 14 13 11 11 11 11 10 11 14 15 16 16 16 16 16 15 15 15 15 16 17 18 20 22 23 25 25 25 25 24 23 22 21 21 20 19 18 17 16 15 14 13
24 23 24 28 31 33 34 35 34 32 30 26 26 26 24 22 20 19 17 13 12 12 13 16 21 24 25 25 23 24 22 20 20 21 20 19 19 19 19 19 20 19 17 16 15 14 13 12 12 11 11 11 12 14 16 17 17 17 17 16 16 16 17 18 19 20 21 23 23 24 24 24 24 23 22 21 20 19 18 17 16 15 14 13 12 11
21 24 29 32 34 35 35 36 36 34 30 26 26 26 25 24 22 19 18 16 13 11 11 16 22 26 27 27 25 25 23 21 20 22 21 20 20 21 20 20 20 20 19 17 16 16 15 14 13 13 12 11 11 13 15 16 17 17 17 17 17 16 18 19 21 22 23 23 23 23 23 23 23 22 21 20 19 18 17 16 15 14 13 12 11 10
25 28 31 32 34 35 35 37 37 33 29 25 25 26 25 24 22 20 18 18 16 13 10 13 21 27 27 27 28 27 25 22 22 22 22 21 20 19 19 20 21 19 19 19 18 17 17 16 15 14 14 13 12 12 13 15 16 17 17 17 17 17 18 20 21 22 23 23 23 23 23 23 22 21 20 19 18 17 16 15 13 12 11 10 9 8
28 29 29 30 33 34 36 37 35 32 29 26 25 26 26 23 22 21 19 18 18 16 13 11 15 25 28 27 29 30 27 24 24 23 23 22 20 19 19 19 19 19 19 18 18 17 17 18 17 16 16 14 13 12 12 14 16 17 17 17 17 16 17 19 20 21 22 22 21 21 21 21 21 21 20 18 17 15 14 13 12 11 10 9 8 7
28 27 28 29 31 34 36 35 32 31 29 27 27 26 26 24 23 21 19 18 18 18 18 13 11 18 26 28 29 32 30 27 26 25 24 23 21 20 20 19 19 19 19 18 17 18 18 19 19 18 17 16 14 13 12 14 15 16 17 17 17 17 17 18 20 20 20 20 20 20 19 19 19 19 19 18 17 15 14 12 11 10 9 8 8 6
28 28 28 29 31 33 33 30 27 28 29 29 29 28 27 25 23 22 19 17 18 18 19 18 14 12 19 28 32 33 34 31 27 26 25 22 21 21 21 20 19 19 20 19 19 20 19 20 21 19 18 17 16 14 13 14 15 16 17 17 17 17 17 18 19 20 20 20 20 19 19 18 18 17 16 16 15 14 13 11 10 9 8 7 7 6
27 28 29 30 32 31 29 26 26 27 28 28 29 29 28 26 24 22 19 18 19 18 17 19 18 13 12 23 34 36 36 33 28 27 26 23 21 21 22 21 20 19 20 20 20 21 21 21 21 20 19 19 18 16 15 14 15 16 18 18 18 18 18 17 18 19 19 19 19 19 18 18 17 17 15 14 13 12 11 10 9 8 7 6 6 5
25 26 28 29 29 30 29 27 28 29 28 27 28 29 28 26 23 19 16 16 17 17 17 16 17 16 12 16 29 37 34 31 29 28 26 25 24 23 23 23 21 20 20 20 21 22 21 21 21 21 20 19 19 18 17 16 15 16 17 18 18 19 19 18 18 18 19 19 18 18 17 16 16 16 15 14 13 11 10 9 9 8 7 6 5 5
26 26 27 28 29 31 32 30 30 31 30 29 29 28 27 25 22 17 14 13 13 14 15 15 15 17 14 12 21 34 36 32 32 31 27 25 25 24 24 23 22 21 20 20 20 21 21 20 20 21 21 20 19 19 18 17 16 16 17 18 19 19 19 19 19 18 18 18 18 17 16 15 15 14 14 13 12 11 10 9 8 7 6 5 5 5
29 27 27 29 32 34 32 30 32 33 32 30 30 28 25 23 20 18 16 13 11 11 13 14 15 15 13 11 14 26 36 37 34 32 30 27 25 25 24 23 23 23 22 21 20 20 20 20 20 21 21 20 20 20 20 19 18 17 17 18 19 19 19 19 19 19 18 18 18 17 16 15 14 13 13 12 11 11 10 9 8 7 6 5 5 5
29 27 28 31 34 34 33 31 32 31 30 30 28 27 24 21 20 19 18 14 11 11 12 14 15 13 13 13 11 16 27 35 36 33 31 29 28 28 26 25 24 24 23 22 21 21 21 22 22 22 22 22 21 20 20 20 20 19 18 18 18 19 19 19 19 19 19 18 18 17 16 15 15 14 13 12 11 11 10 9 8 7 6 6 6 6
28 25 26 30 31 31 31 29 28 26 26 28 28 26 23 21 22 20 19 15 11 12 12 13 14 14 14 13 11 11 16 26 34 37 35 32 30 30 29 27 26 25 25 24 22 22 23 23 23 22 22 23 22 21 21 21 21 20 19 18 18 18 19 19 19 19 19 19 18 17 16 15 15 14 13 12 12 11 10 9 9 8 8 8 7 7
30 24 21 27 28 28 29 28 26 25 25 27 30 28 24 21 21 20 19 15 12 11 11 11 12 13 14 13 11 12 12 15 24 34 39 36 31 29 29 27 25 25 25 24 23 23 24 24 24 23 22 22 22 22 21 21 21 21 21 20 18 17 18 18 18 19 19 19 18 18 17 16 16 15 15 14 13 13 12 11 10 9 9 9 9 8
33 23 19 25 27 26 27 26 27 27 25 26 28 28 25 23 22 22 20 16 13 10 9 10 11 12 14 14 12 12 12 12 15 23 34 38 33 29 28 27 25 24 24 24 23 23 24 24 25 25 23 22 22 22 21 21 22 22 21 21 19 18 17 17 17 17 18 18 18 18 17 17 17 17 16 15 14 14 13 12 11 11 10 10 9 9
33 24 21 25 25 25 27 27 28 27 26 24 25 26 26 25 24 23 21 17 13 10 8 8 9 10 11 13 12 11 10 11 12 16 28 38 37 32 29 27 25 24 24 24 24 25 25 25 25 25 24 23 22 23 23 23 22 22 21 21 20 20 19 18 18 17 16 17 17 17 17 17 16 16 16 16 16 15 14 14 13 12 10 9 9 9
31 24 24 27 26 25 28 29 29 29 27 25 23 24 25 22 21 21 19 16 13 11 9 7 6 7 8 10 11 10 9 10 10 12 21 35 39 34 31 30 26 25 25 25 25 25 25 25 26 26 25 24 24 23 23 23 22 22 22 21 21 20 19 18 18 17 16 16 16 17 17 16 16 16 16 16 16 15 15 14 13 12 10 9 9 8
33 24 23 27 27 25 26 28 28 28 29 28 24 23 23 20 19 20 19 18 16 13 12 9 5 3 4 6 8 8 9 10 10 9 14 29 38 35 32 32 29 25 24 25 25 24 24 25 26 26 26 25 25 24 23 22 21 22 22 22 22 21 19 18 17 17 17 17 17 17 17 17 17 16 16 15 15 14 14 13 12 11 10 10 9 9
34 26 21 23 23 22 22 24 24 23 26 28 25 21 20 18 17 18 19 19 18 15 14 12 7 4 3 4 5 7 8 9 10 10 11 23 35 37 34 34 31 25 24 25 25 24 25 26 27 26 26 27 26 25 23 22 22 22 22 22 22 21 21 20 19 18 18 17 17 17 17 18 18 18 17 16 15 14 13 13 13 12 11 10 10 9
33 27 22 23 22 19 17 17 19 19 21 25 24 20 18 17 15 15 16 16 17 15 12 11 9 8 5 4 5 7 8 8 10 13 15 21 31 36 36 34 32 28 25 26 26 25 26 27 27 27 26 26 26 25 23 23 22 22 22 22 22 22 22 21 20 20 19 18 17 17 17 17 18 18 17 17 16 15 14 13 13 12 12 11 10 10
32 25 21 24 23 20 17 16 19 23 24 25 25 21 17 17 15 14 14 14 13 13 11 10 10 10 9 6 6 7 9 9 10 14 19 24 32 37 37 35 33 30 28 28 28 28 27 28 27 27 26 25 25 24 23 23 22 22 22 22 21 22 22 22 21 20 19 18 17 17 17 17 17 17 17 17 16 15 15 14 13 12 12 12 11 12
30 23 20 23 22 20 18 15 16 24 30 29 28 25 20 18 16 14 15 14 11 10 11 12 11 10 10 8 7 7 8 8 9 12 16 25 35 39 39 37 34 32 31 30 30 30 30 29 28 27 26 25 24 23 22 21 22 23 23 22 22 22 22 22 21 20 19 18 18 17 16 16 16 17 17 17 17 16 15 14 14 13 12 12 12 12
30 27 24 25 25 24 22 17 14 24 33 34 30 27 22 19 17 16 16 15 12 10 10 12 12 11 10 8 7 7 7 6 5 5 10 24 35 40 40 37 34 32 31 30 30 30 30 29 28 27 26 25 24 23 22 22 22 22 22 22 23 23 22 22 21 21 20 20 19 18 17 16 16 16 16 17 17 17 16 15 14 14 13 13 13 13
33 34 32 31 32 30 27 24 19 23 30 35 33 27 23 20 17 16 16 15 13 10 9 11 13 13 11 9 8 7 8 7 4 5 13 26 34 37 37 35 33 33 32 31 30 29 29 28 28 28 27 26 25 24 23 23 22 22 22 23 24 24 23 22 22 22 21 21 20 19 19 18 17 16 16 16 17 17 16 16 15 14 14 14 14 14
34 35 34 34 32 29 27 26 23 22 25 32 34 29 25 23 21 19 18 17 15 14 12 12 14 14 13 11 8 7 7 6 7 9 16 25 30 31 30 30 31 34 34 33 31 30 30 29 27 27 27 26 25 25 24 23 22 22 22 22 23 23 23 23 23 23 22 22 22 21 21 20 19 18 18 17 17 17 16 16 15 15 15 15 14 15
35 33 31 30 29 27 26 26 24 23 22 26 30 29 27 25 24 23 21 18 17 16 15 13 14 14 14 12 9 7 6 4 5 8 12 18 22 24 25 27 29 32 35 36 34 32 32 31 29 27 26 26 25 24 24 23 22 22 22 22 23 23 23 23 23 23 23 23 23 23 23 22 21 20 19 18 17 17 16 16 16 15 15 14 14 15
33 31 31 30 29 29 29 27 26 25 24 25 28 28 27 26 26 24 22 20 19 18 16 14 14 15 15 12 9 8 7 5 4 5 8 12 15 18 20 21 23 27 32 36 37 37 35 33 32 30 28 27 26 25 24 23 22 22 22 22 23 23 23 24 24 23 23 24 24 25 25 25 23 22 21 20 19 18 18 17 16 16 15 15 15 16
28 30 33 32 30 31 31 30 29 28 28 28 29 29 29 29 28 26 24 23 22 21 19 17 16 17 15 13 11 11 10 7 5 5 7 9 11 14 16 18 20 23 29 35 38 39 39 36 33 32 31 29 28 27 26 25 24 23 23 23 24 24 24 25 24 24 24 24 26 27 27 27 26 24 23 22 22 22 21 20 19 18 17 17 17 17
26 28 35 34 30 32 33 32 30 28 28 30 32 32 32 31 31 29 26 26 25 24 22 19 18 18 16 14 13 13 12 11 8 8 9 10 11 12 13 17 20 21 25 36 41 39 40 40 36 34 33 32 31 30 29 28 26 25 25 25 25 25 25 26 26 27 27 27 28 29 29 29 28 27 25 25 25 24 24 24 23 21 21 20 20 20
25 27 35 37 32 33 34 33 30 28 27 30 33 34 34 33 32 30 29 28 26 24 22 20 19 17 16 15 14 13 13 13 12 11 12 11 11 11 12 16 19 15 15 29 42 42 41 41 36 33 32 32 32 32 30 29 28 28 26 25 24 24 24 24 26 27 28 29 30 30 29 30 30 28 27 27 26 26 26 27 26 26 25 25 24 24
23 26 34 37 33 34 35 33 31 30 29 31 33 32 33 33 32 31 31 29 26 24 23 21 19 18 18 18 16 13 13 14 15 15 14 12 11 11 12 14 16 13 8 17 33 39 39 38 35 33 32 32 33 33 32 32 31 30 27 25 25 24 24 25 27 28 28 28 28 29 29 29 29 28 27 27 27 27 27 28 28 28 28 28 27 27
21 23 31 37 33 32 36 36 34 33 32 32 34 33 32 32 32 32 31 28 26 25 25 24 21 21 21 20 18 15 13 14 16 17 16 15 13 13 13 13 14 14 11 14 23 30 33 34 34 34 34 34 35 34 35 37 36 32 30 29 28 25 25 28 31 29 26 26 28 29 29 29 28 27 27 27 28 29 29 29 29 29 29 29 29 28
19 20 26 35 32 30 36 39 36 35 35 34 34 35 33 33 32 31 29 28 26 25 25 25 25 24 24 23 21 18 15 14 15 16 16 16 15 15 15 15 14 14 14 14 17 20 23 26 30 31 32 33 34 34 36 39 39 36 34 33 31 29 28 29 30 29 26 27 30 29 28 28 28 27 27 28 29 31 31 31 31 30 30 30 29 29
18 19 22 29 31 28 33 39 38 35 35 34 34 36 35 34 33 31 29 29 28 26 25 25 25 26 26 24 23 21 18 16 16 16 15 15 15 15 15 15 16 15 14 13 14 16 17 20 23 27 29 31 33 34 35 38 40 39 37 35 33 33 34 32 31 30 29 30 32 31 29 29 28 26 27 29 31 32 31 30 31 31 31 31 30 29
18 18 20 24 27 28 30 37 38 35 33 32 32 35 36 36 35 33 31 30 31 30 28 27 26 26 25 25 24 22 21 19 18 17 15 14 15 16 16 16 16 17 17 16 15 15 14 15 17 20 24 28 32 34 34 36 39 40 39 37 34 33 34 33 33 34 33 33 35 35 34 33 30 27 28 30 32 33 32 31 31 31 31 31 30 29
17 19 20 22 24 27 29 34 35 32 30 29 30 33 36 36 35 35 33 32 33 33 30 28 28 27 27 26 25 24 22 21 20 19 18 15 15 16 16 16 15 16 17 18 18 17 15 15 16 18 20 23 28 32 33 34 37 39 38 37 35 33 34 35 36 36 35 36 37 35 34 34 32 29 29 32 34 35 33 31 31 31 31 31 31 30
18 19 22 23 24 26 28 31 33 32 30 28 29 31 33 35 36 35 34 34 35 34 32 29 29 29 28 28 28 28 27 25 24 22 20 19 18 17 17 16 14 14 16 18 19 19 18 17 18 19 20 20 24 29 32 33 35 35 35 35 35 35 36 36 36 36 37 37 35 34 34 35 33 31 31 34 36 35 32 31 32 33 33 33 32 32
19 21 23 23 24 25 26 29 32 35 35 33 31 30 30 31 32 32 33 35 36 36 35 34 32 30 29 28 29 30 30 29 27 25 24 23 22 21 21 19 16 15 15 16 18 19 19 20 20 19 19 19 19 22 27 29 31 31 31 32 34 36 37 37 36 37 38 36 31 29 30 32 32 32 34 36 37 36 34 34 34 33 32 33 34 34
20 22 23 23 23 23 24 26 29 34 37 37 35 33 32 31 30 29 29 32 35 36 36 35 34 32 31 30 30 31 31 30 29 27 26 25 24 23 23 22 21 19 18 17 17 17 18 20 20 20 20 19 18 17 18 20 22 23 23 25 28 31 32 33 33 34 35 32 26 23 24 26 28 31 35 38 39 38 37 35 34 33 33 35 37 37
20 21 22 22 22 21 22 24 27 32 37 38 37 36 35 34 33 31 29 29 31 33 34 34 33 33 32 31 30 30 30 29 28 27 26 25 24 24 24 23 23 22 21 20 19 19 19 19 19 20 21 21 21 20 19 19 19 18 18 19 21 23 24 26 28 28 27 26 23 21 22 23 24 25 29 33 36 37 36 34 31 31 31 32 35 39
16 20 21 21 21 20 19 22 25 29 35 38 39 39 39 38 37 36 35 32 31 31 30 30 31 32 32 33 32 30 29 29 28 27 26 25 24 24 25 24 24 24 24 23 22 22 22 22 21 21 22 22 22 22 22 22 22 21 20 19 20 20 21 23 25 26 25 24 22 21 21 22 22 23 23 25 27 30 32 31 29 26 25 24 26 30
12 16 19 20 20 20 19 20 22 25 29 34 37 38 40 39 38 38 38 37 35 34 31 29 28 29 30 31 31 31 31 30 30 29 29 28 28 27 26 26 26 25 25 25 24 24 24 23 23 23 24 24 23 22 23 23 22 21 20 20 20 20 20 21 22 24 24 24 22 22 22 21 21 22 22 21 23 27 30 30 28 25 24 25 24 23
11 13 15 17 19 20 20 19 20 22 26 30 33 34 36 36 36 36 37 36 35 35 34 31 28 27 27 27 28 29 30 30 30 30 30 31 31 30 29 28 28 27 26 25 26 26 25 25 25 25 25 26 26 25 25 26 26 25 25 24 24 24 24 24 25 26 27 27 27 28 29 27 26 26 25 24 25 27 28 28 27 26 28 29 28 24
11 12 14 15 16 18 20 20 20 21 23 26 29 32 33 33 33 33 34 34 34 33 34 33 31 29 28 27 27 27 28 28 29 29 29 30 30 30 29 28 28 28 26 25 25 26 26 26 26 27 27 28 29 29 30 30 30 30 30 29 29 29 29 30 31 32 32 32 32 33 34 33 31 30 29 27 28 30 31 30 30 32 34 34 31 27
12 13 13 14 14 16 18 20 21 21 21 22 25 28 31 32 33 32 32 32 31 30 29 30 30 29 28 27 27 27 27 28 28 28 28 28 28 28 27 26 26 27 27 26 25 26 26 26 26 27 28 28 29 30 31 31 31 31 30 30 29 29 29 30 31 31 31 31 31 31 32 32 31 29 30 30 30 32 33 33 32 34 36 35 33 31
11 11 12 13 13 14 16 18 19 20 21 20 21 24 27 30 32 32 32 32 31 30 28 27 27 26 26 26 26 27 27 28 28 28 28 28 27 27 27 26 25 25 26 27 27 28 28 29 28 28 28 29 29 29 29 29 29 29 28 28 28 28 29 29 30 30 30 31 31 31 32 32 32 32 32 32 33 33 32 32 33 34 35 34 34 34
11 11 11 12 14 15 16 16 16 17 19 20 20 21 23 25 27 29 30 31 32 33 33 31 29 27 25 25 25 26 27 27 28 28 28 27 27 27 27 27 27 27 27 28 29 30 30 31 31 31 31 31 31 31 31 31 30 30 30 31 31 32 32 32 33 33 33 33 34 34 33 33 34 34 34 34 33 33 33 34 35 36 35 35 35 35
12 12 12 12 13 14 15 15 16 16 17 18 19 19 20 20 21 23 24 26 27 30 32 33 33 32 28 25 24 25 25 26 26 26 27 27 27 27 27 27 28 28 29 29 30 31 32 32 33 34 34 34 34 34 35 34 34 34 35 35 36 36 36 36 36 36 36 36 36 37 37 36 36 36 35 35 34 34 33 35 38 39 38 38 38 38
13 13 13 13 13 14 15 15 16 16 16 16 17 18 18 19 19 19 20 21 22 23 25 28 30 31 29 26 24 23 23 24 24 24 24 25 25 26 26 27 27 28 29 29 30 31 31 32 33 34 35 36 36 37 37 37 37 37 38 38 38 39 39 39 39 39 39 39 38 38 39 39 39 39 38 37 37 36 36 37 39 41 42 41 40 40
Wind_Direction
217 218 219 216 214 211 204 205 211 212 213 213 211 213 213 212 212 209 208 212 217 219 215 216 220 216 205 195 192 195 203 203 191 191 192 185 175 172 175 170 174 187 177 162 159 156 150 137 131 125 121 127 129 129 129 129 129 127 126 126 123 119 116 118 122 123 121 121 123 125 128 130 129 126 125 124 122 120 119 119 118 116 114 112 110 109
214 215 215 211 210 207 201 204 210 209 211 211 210 210 207 208 214 214 215 216 221 227 222 217 221 220 210 202 197 197 204 205 194 192 191 186 178 177 179 174 176 186 179 165 155 156 157 142 136 132 126 126 128 131 132 132 132 130 129 129 126 121 118 121 122 121 121 122 121 122 124 127 127 126 125 123 122 121 119 118 116 114 111 110 110 109
213 211 208 207 208 206 201 203 208 208 210 210 210 211 209 210 218 219 221 225 227 232 234 221 215 218 214 205 199 197 203 206 196 191 191 185 178 181 183 176 176 182 180 169 157 156 160 151 144 140 134 127 126 132 136 137 136 134 133 132 130 126 123 125 126 124 124 124 123 122 123 125 125 125 124 123 122 121 119 117 115 112 109 108 107 107
209 203 203 205 206 206 203 202 205 207 208 210 212 214 213 214 219 221 220 223 225 229 236 222 208 211 212 205 200 197 201 208 200 192 192 186 179 181 183 177 176 180 180 172 161 159 162 159 153 145 138 130 127 132 137 141 140 138 136 134 134 129 127 130 131 130 129 127 126 125 126 127 127 126 125 124 123 121 120 118 115 113 111 108 105 104
194 195 200 203 205 206 205 203 205 206 206 208 212 215 215 215 218 221 219 219 221 225 233 224 210 211 213 209 205 201 201 208 204 196 195 191 183 181 181 178 177 179 180 175 164 164 165 162 158 149 143 138 133 132 137 142 143 142 139 136 135 130 128 133 135 135 134 133 132 132 132 132 131 130 129 129 128 125 123 120 118 116 113 111 108 106
187 195 200 201 204 206 206 205 206 205 203 206 211 214 216 216 218 222 220 217 219 220 226 229 219 215 215 213 209 205 203 208 208 199 197 196 188 183 180 178 180 180 182 179 170 168 167 163 160 154 148 145 141 137 137 142 145 145 142 138 135 132 131 134 137 138 139 139 139 138 137 136 135 134 133 132 131 129 128 125 123 121 117 114 112 109
190 195 198 201 204 206 206 206 205 203 203 206 209 213 215 214 216 221 222 220 221 221 221 232 227 217 215 214 210 208 207 208 210 202 198 200 191 183 182 180 181 180 181 183 174 169 168 165 164 159 153 150 147 143 141 145 148 148 146 142 138 136 134 137 140 142 142 143 142 141 140 139 139 139 138 137 136 135 133 132 130 126 122 118 115 110
193 192 194 200 204 207 207 205 203 202 203 206 209 212 215 215 216 220 223 223 225 225 224 232 238 222 217 215 213 212 210 209 211 206 200 200 191 185 185 182 182 180 180 183 176 172 172 168 167 164 158 153 150 149 147 149 151 151 151 148 143 141 139 142 145 146 147 147 146 146 144 144 144 144 144 143 143 142 140 138 135 131 127 123 119 115
193 192 193 198 202 206 206 203 200 201 203 208 212 212 214 215 216 220 224 225 228 228 229 233 241 241 227 218 214 215 214 210 209 207 204 201 193 188 187 184 185 183 180 182 178 176 177 173 170 167 161 156 154 155 153 151 153 155 157 154 151 148 146 147 150 151 152 152 151 151 150 150 149 149 149 148 147 147 145 143 140 137 133 130 127 125
194 193 193 197 200 200 199 197 196 198 201 208 215 215 216 217 217 221 226 229 231 231 231 232 237 250 247 225 217 215 215 212 209 206 204 202 196 191 190 187 187 189 186 185 183 180 180 177 173 169 165 161 158 158 157 154 155 159 161 160 158 156 153 152 154 156 157 157 157 156 155 156 156 154 154 153 152 151 149 148 148 147 145 143 141 137
191 193 195 197 197 193 189 188 190 193 196 203 213 217 217 217 216 221 227 229 231 230 230 232 235 242 252 238 223 217 215 214 212 208 204 204 199 192 192 190 187 191 193 192 189 186 183 179 175 172 168 165 162 161 161 158 158 162 164 165 165 163 161 159 160 162 163 163 162 161 160 160 160 160 158 158 158 158 158 157 158 160 160 158 155 149
188 192 194 193 192 190 188 187 186 189 192 198 207 212 214 216 216 221 225 228 230 227 224 225 231 236 246 253 229 217 214 213 213 210 206 206 203 196 193 191 188 191 197 198 195 191 187 181 177 175 170 167 166 165 164 162 162 164 165 168 170 170 168 167 166 167 169 169 167 166 165 165 166 165 164 163 163 164 167 167 169 172 173 168 163 159
187 189 188 186 187 189 189 190 190 189 191 198 204 207 210 214 217 220 225 229 228 222 217 220 227 231 239 253 235 217 214 215 214 211 208 206 202 199 196 192 190 192 197 201 199 194 189 184 181 179 175 171 170 169 167 166 165 166 166 169 173 175 174 173 172 172 173 175 174 172 171 171 172 172 170 170 169 171 175 177 177 178 181 180 171 167
183 181 180 181 185 188 190 195 196 192 194 201 206 207 208 215 221 221 224 225 220 218 218 223 228 228 232 238 228 217 217 219 218 215 211 206 200 199 197 195 194 193 196 201 199 194 191 188 185 182 179 176 174 172 171 170 168 168 169 169 172 175 177 178 178 178 178 179 180 180 179 178 178 178 178 178 178 179 181 182 183 181 184 185 179 177
174 174 180 182 185 190 193 196 196 192 197 204 208 207 204 212 222 220 220 220 214 215 219 224 227 227 233 233 221 219 221 220 219 218 216 211 202 198 196 196 196 195 196 199 199 195 191 190 188 186 184 180 177 175 174 173 172 171 171 172 173 175 177 181 184 184 183 183 185 186 186 187 186 185 187 188 188 189 188 189 190 188 187 186 184 185
170 172 187 189 186 190 192 192 191 190 197 202 205 205 199 204 218 219 218 214 208 213 218 222 225 226 234 237 229 227 226 221 219 220 219 215 207 201 197 195 196 198 197 197 198 197 194 192 190 188 188 185 181 180 177 176 175 175 175 176 177 177 177 180 184 187 189 188 189 191 191 193 193 193 194 195 196 197 195 195 194 192 191 188 187 189
174 174 193 194 186 185 188 190 193 193 197 201 204 205 200 202 215 221 218 210 204 212 221 223 224 227 233 236 234 229 225 225 224 222 220 216 211 207 200 195 195 198 199 198 196 197 197 195 191 190 191 189 186 185 184 182 180 179 178 178 180 181 182 184 185 187 189 190 192 194 195 196 197 199 199 199 200 199 199 200 198 196 195 194 193 193
176 178 191 191 184 183 187 192 196 197 199 198 199 203 203 204 213 222 221 212 204 207 216 219 221 227 233 234 236 232 224 227 230 226 220 216 213 209 200 196 196 197 199 199 197 197 196 196 194 191 191 192 191 190 190 189 185 182 181 181 183 184 186 188 189 190 190 191 192 193 196 198 199 200 200 201 201 200 200 202 202 200 200 201 202 197
178 181 189 188 184 187 192 195 195 197 199 196 194 199 202 202 210 221 222 214 209 209 209 206 207 221 232 234 237 237 230 228 234 232 218 212 210 208 201 196 197 198 199 201 201 199 196 196 198 195 191 194 197 196 195 193 189 186 185 185 186 188 189 190 193 195 195 196 196 195 195 197 198 199 200 201 201 201 201 202 203 203 204 207 208 201
179 182 188 187 185 189 198 200 195 195 199 198 193 192 196 199 207 218 219 213 211 216 216 210 201 220 243 240 237 236 234 230 235 240 219 207 205 208 207 201 199 199 201 202 202 200 198 198 202 201 195 195 199 201 200 198 195 193 190 189 189 189 190 192 195 199 201 202 202 200 199 199 200 200 201 202 203 205 206 205 206 208 209 211 212 207
179 180 183 187 189 190 195 198 196 198 202 201 196 191 193 200 210 220 223 218 215 220 225 223 224 241 257 256 243 231 230 233 232 234 224 207 203 206 210 206 201 200 201 203 202 199 197 199 204 206 202 199 201 202 202 201 201 200 196 194 193 192 193 194 196 199 203 206 206 206 206 206 206 206 205 206 207 210 212 213 214 215 213 214 215 212
183 180 178 186 193 191 190 195 201 205 207 206 201 196 197 203 209 217 221 221 221 226 233 233 233 244 252 265 256 234 230 243 242 235 230 216 205 204 207 205 202 200 200 204 204 198 195 198 203 208 209 206 204 203 204 205 205 205 204 201 199 198 199 198 198 200 203 207 209 211 213 214 216 215 213 213 213 214 216 217 218 217 215 214 214 214
189 184 177 181 189 192 193 198 206 207 208 208 202 194 196 204 208 212 213 216 221 226 233 233 232 241 245 250 258 244 238 253 261 251 237 220 206 200 201 201 200 199 200 203 205 200 196 197 202 208 213 213 209 205 206 208 208 209 210 209 206 205 206 205 203 203 205 209 212 214 216 219 223 224 222 220 220 220 220 220 221 221 219 216 215 217
191 185 180 179 185 194 193 189 200 203 199 201 199 190 190 199 199 200 204 204 206 213 221 222 226 238 242 239 246 246 241 254 272 265 237 212 200 195 194 196 197 199 200 203 205 203 199 199 201 206 213 217 215 210 208 210 212 213 214 214 213 212 212 211 211 208 208 210 213 214 217 220 223 226 228 227 227 227 226 225 224 224 224 222 221 222
190 186 186 184 186 191 191 186 196 199 189 186 190 186 183 188 185 183 193 198 195 198 205 208 214 226 233 229 228 230 228 239 268 262 204 193 191 189 188 191 196 199 201 203 206 207 206 204 203 206 211 217 219 216 212 212 215 217 218 218 218 218 217 217 217 215 214 215 216 216 217 219 221 224 228 231 231 232 231 230 230 229 230 230 230 229
193 189 188 187 185 186 190 194 202 207 192 179 180 181 179 183 183 182 194 199 194 190 191 198 205 215 226 225 215 212 211 208 199 155 162 174 181 184 186 191 197 201 202 204 207 210 212 211 209 207 209 215 220 219 217 216 217 219 221 221 222 223 222 221 220 220 220 221 222 222 220 221 222 223 227 230 232 235 234 233 234 234 235 236 236 235
195 192 187 185 184 183 190 198 204 213 201 180 175 176 178 187 194 197 203 204 199 193 191 198 203 208 223 229 216 207 206 196 180 157 157 167 176 183 190 197 203 206 207 208 209 211 214 216 214 211 210 213 218 219 218 219 219 220 223 224 226 227 226 226 224 223 224 225 226 228 227 225 225 225 226 229 232 237 238 237 237 238 239 241 242 241
196 189 180 178 181 182 189 196 201 207 203 188 181 178 178 189 200 204 206 206 205 202 197 201 205 206 216 225 221 212 204 191 185 175 168 172 178 185 194 202 208 210 212 214 215 214 215 216 215 214 214 215 219 221 221 221 220 220 222 224 226 229 230 230 229 227 228 229 230 231 232 230 229 228 229 230 233 236 240 240 239 239 240 242 244 245
199 189 173 172 180 184 187 191 196 204 206 200 194 186 183 192 202 206 207 207 211 211 204 203 209 210 212 214 216 213 202 192 200 196 188 187 190 194 202 208 213 217 216 215 216 216 215 215 214 213 214 215 216 221 223 223 221 218 219 222 225 228 229 230 231 230 231 232 232 233 233 234 233 232 232 233 234 236 238 240 240 239 239 240 241 244
209 195 177 175 181 186 188 189 194 204 209 209 205 196 191 195 202 209 214 215 218 219 212 208 211 212 209 208 215 220 217 216 225 220 212 209 208 213 218 221 226 231 225 216 215 215 213 211 211 211 212 214 215 217 220 222 222 218 215 218 221 224 226 228 229 230 230 232 233 233 233 234 235 235 235 236 236 237 237 238 239 240 240 240 241 242
222 204 185 181 184 187 190 192 194 202 208 210 212 208 203 205 209 213 219 221 223 222 217 214 216 215 210 209 217 226 228 227 226 224 224 225 226 228 232 232 235 244 234 217 213 214 212 210 209 209 210 214 216 216 217 219 221 221 217 216 218 222 225 226 228 227 227 228 230 232 232 232 233 233 234 236 237 238 238 238 238 237 238 239 240 241
231 215 193 186 187 190 192 194 197 203 205 207 210 209 207 210 213 213 215 219 220 218 217 219 221 219 216 216 223 231 232 229 226 224 223 225 231 235 239 238 238 250 244 217 209 209 210 209 208 210 213 216 219 221 220 219 221 223 224 221 219 222 226 231 234 233 231 230 231 232 232 231 231 231 232 234 236 238 239 239 239 237 236 236 237 238
241 225 200 190 190 191 191 194 198 204 205 203 204 204 203 205 207 207 210 214 216 215 218 223 226 224 223 225 229 234 235 232 229 229 226 227 237 243 247 246 241 244 244 212 203 204 207 209 209 214 219 221 224 226 226 225 223 222 226 227 224 221 222 228 234 235 236 237 237 236 236 236 235 234 234 235 236 237 240 241 243 243 243 241 241 240
254 237 207 195 194 190 188 192 199 204 205 202 201 202 202 203 204 206 208 212 214 216 220 223 225 226 228 230 232 232 236 237 235 235 233 233 241 248 250 252 249 243 232 210 202 204 209 212 215 220 223 225 226 227 228 230 228 223 222 224 224 223 222 226 230 228 228 237 241 239 238 238 238 237 238 238 238 238 238 238 240 243 246 247 248 247
258 252 220 205 201 194 189 192 199 203 205 203 202 203 205 206 206 208 210 211 212 215 219 220 223 225 228 231 233 233 236 242 241 240 239 239 244 252 254 251 246 241 233 221 213 213 216 220 223 227 230 230 230 230 231 232 230 226 223 221 219 220 224 232 236 231 225 232 239 240 240 239 238 238 238 240 242 241 240 239 239 239 240 242 245 247
250 257 242 221 213 204 194 193 197 202 204 205 205 207 208 207 207 208 213 214 212 212 216 219 224 226 228 232 236 237 240 246 245 241 242 244 246 252 258 255 246 242 242 239 230 226 228 231 233 234 235 235 234 234 233 231 229 227 226 224 220 218 221 229 238 237 230 229 231 234 239 240 239 240 240 241 242 243 244 245 244 242 241 240 241 243
242 249 255 242 227 216 203 196 197 200 202 203 206 208 210 211 210 210 213 215 214 214 217 222 226 228 229 232 237 240 242 244 242 239 241 247 251 254 257 256 251 250 253 254 248 242 241 243 242 241 241 239 238 238 237 233 229 226 223 222 221 218 219 224 232 234 233 232 230 232 237 239 238 241 244 243 243 244 243 245 246 246 245 244 244 243
236 238 246 248 241 232 220 208 204 203 201 202 205 209 212 215 216 216 216 217 218 219 221 225 228 231 233 235 240 242 241 240 239 237 238 243 252 256 257 256 254 253 255 257 255 250 247 249 252 252 249 245 240 237 236 233 231 228 224 222 221 220 220 225 230 231 232 235 235 235 237 239 239 243 246 246 246 244 243 245 250 251 249 247 246 245
231 235 238 241 242 241 234 225 218 213 209 207 206 209 213 216 219 221 222 223 224 225 228 231 233 235 237 238 240 241 240 239 239 239 240 245 251 253 252 252 250 248 250 253 254 253 250 250 254 255 253 249 240 233 231 232 232 230 225 222 222 222 224 227 229 229 230 234 238 237 237 238 238 239 242 246 248 246 244 249 256 257 253 248 246 247
225 233 236 237 238 238 237 233 226 220 217 214 212 212 214 215 218 222 225 227 227 229 233 235 236 238 240 239 240 242 242 241 241 242 245 251 255 253 251 249 247 244 244 247 251 252 249 248 254 256 253 248 239 230 229 230 230 228 227 225 224 225 227 229 228 229 232 236 238 237 237 238 238 238 241 247 250 249 247 250 256 259 254 249 247 247
220 229 233 236 237 236 235 233 228 223 220 218 218 218 217 214 217 225 229 228 227 229 232 235 236 239 242 242 242 244 245 245 244 245 248 251 253 252 250 250 249 248 246 247 249 250 245 241 249 256 253 248 246 244 239 235 231 233 236 233 226 222 224 225 226 230 234 237 239 239 239 241 243 245 246 246 247 247 248 252 257 260 258 255 252 250
216 222 228 232 237 238 236 234 230 225 222 221 222 223 222 222 226 231 232 230 228 229 232 236 239 241 244 247 247 247 248 249 249 248 247 248 250 251 251 252 253 253 252 250 250 251 249 245 249 256 257 253 251 252 252 248 244 243 244 238 228 221 219 220 225 229 233 237 242 246 245 244 246 249 249 247 245 245 249 252 256 260 262 262 260 256
216 219 223 227 232 236 239 237 234 230 227 227 228 228 228 230 234 236 237 238 238 237 239 242 243 244 246 249 252 253 254 255 255 253 250 249 252 256 258 257 256 257 257 255 253 253 254 254 255 257 260 260 258 254 252 250 247 244 243 243 240 236 232 231 234 238 239 241 245 248 246 245 245 246 247 248 245 243 245 248 251 255 260 266 269 264
219 220 223 227 230 234 238 238 236 234 231 230 232 233 235 237 239 239 241 244 244 242 244 247 247 246 246 249 252 255 257 258 259 258 256 254 255 258 261 261 261 261 261 261 260 257 256 257 256 255 255 258 258 254 248 246 245 245 249 253 254 250 246 243 244 246 245 244 247 250 250 247 245 245 246 249 248 245 245 246 248 252 258 266 275 275
222 221 224 226 230 234 238 239 237 235 233 232 233 235 237 240 241 241 242 244 245 244 245 250 253 252 251 251 254 257 258 259 259 259 258 258 258 259 260 262 264 265 264 264 265 263 260 258 257 254 252 252 253 252 250 249 252 256 260 263 263 259 256 255 259 260 259 255 255 258 260 259 258 258 259 260 259 256 254 254 255 260 267 271 272 272
221 222 224 225 228 232 236 237 237 236 234 233 234 236 237 240 242 243 242 243 246 246 246 250 256 257 256 256 257 259 261 261 260 259 258 258 259 260 261 261 262 264 264 262 262 264 263 261 259 256 254 252 251 253 254 257 260 262 264 265 264 261 259 261 265 267 267 265 263 264 266 267 268 269 268 265 263 264 267 269 270 272 273 272 269 264
218 219 222 224 227 229 232 233 234 234 233 233 233 234 237 239 242 243 243 242 243 243 244 246 250 254 256 257 257 258 260 261 262 261 260 258 258 259 260 260 259 260 261 259 256 256 257 258 257 255 254 253 252 253 255 258 262 265 266 267 266 264 263 262 263 265 265 265 264 263 265 267 268 268 267 264 262 263 266 270 272 272 269 267 262 258
219 219 221 223 225 226 228 229 230 231 231 231 230 232 234 238 240 242 243 243 242 242 242 242 245 248 252 254 255 255 255 257 260 261 261 260 258 257 257 257 256 255 255 255 253 251 250 251 252 251 250 251 252 253 254 256 260 264 267 268 268 267 265 263 263 263 262 263 263 262 261 262 262 261 261 261 260 259 260 263 266 265 263 261 260 257
225 224 224 223 223 224 225 224 224 226 227 227 228 230 232 235 238 240 243 244 244 244 244 245 246 247 249 251 252 252 252 253 256 258 260 260 259 256 254 254 254 253 252 252 252 252 251 250 251 251 251 252 252 253 253 255 257 260 264 267 267 266 265 264 264 264 263 263 264 265 264 262 262 261 260 260 260 258 256 256 258 258 256 256 258 259
225 224 224 223 223 224 226 224 222 222 222 222 224 227 229 231 234 237 239 240 241 242 243 244 245 246 248 251 251 250 249 249 251 254 256 258 259 258 256 254 253 253 253 252 251 252 253 253 252 252 252 253 254 254 255 256 257 258 260 263 265 265 266 266 266 266 265 265 265 266 266 266 265 264 263 261 260 259 256 254 255 257 257 256 259 260
223 224 225 224 223 223 225 226 225 223 220 219 220 223 226 228 230 232 234 235 235 236 236 238 240 242 245 249 249 247 246 246 247 249 251 254 256 258 258 257 255 253 253 253 253 253 253 253 254 254 253 253 253 254 255 256 257 257 258 259 260 262 264 266 267 267 267 267 267 266 266 266 266 266 265 264 262 260 258 256 255 256 256 257 259 260
Height
5841 5843 5846 5853 5858 5862 5865 5866 5866 5867 5869 5871 5873 5874 5876 5877 5878 5879 5879 5880 5880 5880 5881 5883 5885 5886 5888 5889 5889 5891 5892 5893 5895 5897 5898 5899 5900 5902 5904 5906 5907 5908 5909 5910 5910 5910 5910 5910 5911 5912 5913 5914 5914 5915 5916 5916 5916 5916 5917 5917 5918 5918 5919 5920 5920 5920 5921 5921 5922 5923 5924 5925 5926 5927 5928 5930 5931 5931 5932 5933 5933 5934 5934 5935 5936 5936
5838 5842 5847 5853 5856 5860 5862 5862 5863 5865 5868 5869 5870 5873 5874 5876 5876 5877 5878 5879 5880 5880 5880 5882 5883 5885 5886 5887 5888 5890 5892 5893 5895 5897 5898 5898 5900 5902 5904 5906 5907 5908 5910 5911 5911 5911 5910 5911 5911 5913 5914 5915 5915 5916 5917 5917 5918 5918 5918 5918 5919 5920 5920 5921 5921 5922 5923 5923 5924 5924 5925 5926 5928 5929 5930 5931 5932 5933 5934 5935 5935 5936 5936 5937 5937 5938
5838 5843 5848 5851 5853 5856 5857 5858 5860 5863 5865 5867 5869 5871 5873 5874 5875 5876 5877 5878 5879 5879 5879 5881 5882 5883 5885 5886 5887 5889 5891 5892 5894 5896 5897 5897 5899 5902 5904 5906 5907 5908 5910 5910 5911 5911 5911 5911 5912 5913 5914 5915 5916 5917 5918 5918 5919 5919 5919 5920 5921 5921 5922 5922 5922 5923 5924 5925 5926 5926 5927 5929 5930 5931 5932 5933 5934 5935 5936 5936 5937 5938 5938 5939 5939 5940
5839 5844 5846 5847 5848 5851 5853 5855 5858 5860 5863 5865 5867 5870 5871 5872 5873 5874 5877 5877 5877 5878 5878 5879 5881 5881 5882 5884 5886 5888 5890 5892 5893 5894 5895 5896 5899 5901 5903 5905 5906 5907 5909 5910 5911 5912 5911 5912 5912 5913 5914 5915 5916 5917 5918 5919 5920 5920 5921 5921 5922 5923 5923 5924 5924 5924 5926 5927 5928 5928 5929 5931 5932 5933 5934 5935 5936 5937 5937 5938 5939 5939 5940 5940 5941 5941
5838 5840 5840 5841 5844 5847 5850 5853 5855 5858 5862 5864 5866 5868 5870 5870 5872 5873 5875 5876 5876 5877 5877 5878 5879 5880 5880 5882 5884 5887 5889 5890 5891 5893 5895 5896 5898 5900 5902 5904 5905 5906 5908 5909 5910 5911 5912 5912 5913 5913 5914 5915 5916 5917 5919 5920 5920 5921 5922 5922 5923 5924 5924 5925 5925 5926 5927 5928 5929 5930 5931 5932 5933 5934 5935 5936 5937 5938 5939 5939 5940 5940 5941 5941 5942 5942
5834 5834 5835 5838 5841 5844 5847 5850 5853 5858 5861 5863 5864 5866 5868 5869 5871 5871 5873 5874 5875 5875 5876 5876 5877 5878 5880 5881 5883 5885 5887 5889 5890 5892 5894 5896 5897 5900 5901 5903 5904 5906 5908 5909 5909 5911 5912 5912 5913 5914 5915 5916 5916 5917 5919 5920 5921 5922 5923 5923 5924 5924 5925 5926 5927 5927 5928 5929 5930 5932 5933 5933 5934 5936 5937 5937 5938 5939 5940 5940 5941 5942 5942 5942 5943 5943
5830 5832 5834 5837 5839 5841 5844 5848 5852 5856 5859 5861 5862 5864 5866 5868 5869 5870 5871 5872 5873 5874 5875 5875 5875 5876 5878 5880 5881 5883 5886 5887 5888 5890 5893 5895 5897 5899 5901 5903 5904 5905 5907 5909 5909 5911 5912 5912 5913 5914 5915 5916 5917 5918 5919 5920 5922 5923 5924 5924 5925 5925 5926 5927 5928 5929 5930 5931 5932 5934 5935 5935 5936 5937 5938 5939 5940 5941 5941 5942 5942 5943 5943 5943 5943 5944
5829 5831 5833 5835 5838 5839 5842 5847 5852 5855 5857 5859 5860 5862 5864 5866 5867 5868 5870 5871 5872 5873 5874 5874 5874 5875 5877 5879 5880 5881 5883 5886 5887 5889 5891 5893 5896 5898 5900 5902 5904 5905 5907 5908 5910 5911 5912 5913 5913 5914 5915 5915 5917 5918 5919 5921 5922 5923 5924 5925 5926 5927 5927 5928 5929 5930 5931 5932 5933 5935 5936 5937 5938 5939 5939 5940 5941 5942 5942 5943 5943 5944 5944 5944 5944 5945
5827 5829 5831 5833 5835 5838 5843 5848 5851 5853 5856 5857 5859 5860 5862 5864 5866 5867 5869 5870 5871 5872 5873 5874 5874 5874 5876 5877 5878 5879 5881 5883 5886 5888 5890 5892 5894 5896 5899 5901 5903 5904 5906 5907 5909 5910 5911 5913 5913 5914 5915 5915 5917 5919 5920 5921 5922 5923 5925 5926 5927 5928 5929 5929 5930 5931 5932 5934 5935 5936 5937 5938 5939 5940 5941 5942 5942 5943 5943 5944 5944 5945 5945 5945 5946 5946
5827 5828 5830 5831 5833 5838 5844 5847 5849 5851 5854 5855 5857 5859 5861 5862 5864 5866 5868 5869 5870 5870 5871 5872 5873 5873 5874 5875 5875 5876 5877 5881 5885 5887 5889 5891 5893 5895 5897 5899 5902 5904 5905 5906 5908 5909 5910 5912 5913 5914 5915 5916 5917 5919 5921 5922 5923 5924 5925 5926 5928 5929 5930 5931 5932 5932 5933 5935 5936 5937 5938 5939 5939 5940 5941 5942 5943 5944 5944 5944 5945 5945 5946 5946 5946 5947
5827 5827 5829 5831 5834 5838 5841 5843 5846 5849 5851 5853 5855 5858 5860 5861 5863 5865 5867 5867 5868 5868 5869 5870 5871 5872 5872 5873 5873 5874 5877 5881 5884 5886 5888 5889 5891 5893 5896 5898 5900 5903 5904 5906 5907 5908 5910 5912 5913 5914 5915 5916 5918 5920 5921 5922 5924 5925 5926 5927 5928 5929 5930 5932 5933 5934 5935 5935 5937 5938 5939 5940 5940 5941 5942 5942 5943 5944 5945 5945 5946 5946 5946 5947 5947 5947
5825 5827 5829 5832 5834 5836 5837 5839 5842 5846 5848 5851 5853 5855 5858 5859 5862 5864 5865 5865 5866 5866 5868 5869 5870 5870 5871 5871 5871 5873 5877 5879 5881 5884 5886 5888 5890 5892 5895 5897 5899 5901 5903 5905 5906 5908 5909 5911 5913 5914 5915 5916 5918 5920 5921 5923 5924 5925 5926 5927 5928 5930 5931 5932 5933 5934 5935 5936 5937 5938 5939 5940 5941 5942 5942 5943 5944 5945 5946 5946 5946 5947 5947 5947 5947 5948
5824 5826 5829 5830 5831 5833 5835 5837 5840 5843 5846 5848 5850 5853 5856 5858 5861 5863 5863 5864 5865 5865 5866 5867 5868 5869 5870 5871 5870 5871 5875 5876 5878 5881 5884 5886 5889 5891 5893 5896 5898 5900 5902 5904 5905 5907 5909 5911 5913 5914 5915 5916 5918 5920 5921 5923 5924 5926 5927 5927 5929 5930 5931 5932 5933 5934 5935 5937 5937 5938 5939 5940 5941 5942 5943 5944 5944 5945 5946 5946 5947 5947 5948 5948 5948 5948
5824 5826 5828 5829 5830 5832 5834 5836 5839 5843 5846 5848 5851 5853 5855 5858 5860 5861 5862 5863 5864 5864 5865 5866 5867 5868 5869 5869 5869 5870 5872 5874 5877 5879 5881 5884 5887 5889 5891 5894 5896 5898 5900 5902 5904 5906 5908 5909 5911 5913 5915 5916 5917 5919 5921 5923 5924 5926 5927 5928 5929 5930 5931 5932 5933 5934 5935 5936 5938 5939 5939 5940 5941 5942 5943 5944 5944 5945 5946 5947 5947 5947 5948 5948 5948 5948
5825 5827 5828 5829 5831 5833 5834 5837 5841 5844 5847 5849 5851 5852 5854 5857 5859 5860 5860 5861 5863 5863 5864 5865 5866 5867 5868 5868 5869 5869 5870 5872 5874 5876 5879 5881 5884 5886 5888 5891 5894 5896 5898 5900 5902 5904 5906 5908 5910 5912 5914 5915 5916 5918 5920 5922 5924 5925 5927 5928 5928 5929 5930 5932 5933 5934 5935 5936 5937 5938 5939 5940 5941 5942 5943 5944 5944 5945 5946 5946 5947 5947 5948 5948 5948 5949
5824 5826 5827 5827 5830 5833 5835 5837 5840 5843 5845 5847 5849 5851 5852 5855 5857 5858 5859 5860 5861 5862 5863 5864 5865 5866 5867 5868 5868 5869 5869 5870 5871 5873 5876 5879 5882 5884 5886 5889 5892 5895 5897 5899 5901 5903 5905 5906 5908 5911 5913 5914 5916 5917 5919 5921 5923 5924 5926 5927 5928 5929 5930 5931 5932 5934 5935 5936 5937 5938 5939 5940 5941 5942 5942 5943 5944 5945 5946 5946 5947 5947 5948 5948 5948 5949
5822 5824 5824 5826 5829 5832 5835 5837 5839 5841 5843 5845 5848 5850 5852 5853 5855 5856 5858 5859 5860 5862 5862 5863 5864 5865 5866 5867 5867 5868 5868 5869 5870 5871 5873 5877 5880 5883 5885 5887 5891 5894 5896 5898 5900 5902 5904 5906 5907 5909 5912 5913 5915 5916 5918 5920 5921 5923 5925 5926 5927 5929 5930 5931 5932 5933 5934 5935 5936 5937 5938 5939 5940 5941 5942 5942 5943 5944 5945 5946 5946 5947 5947 5948 5948 5948
5821 5822 5823 5825 5829 5831 5832 5835 5837 5840 5842 5844 5848 5850 5851 5852 5854 5856 5857 5859 5860 5861 5862 5862 5863 5864 5865 5866 5866 5867 5867 5868 5869 5870 5871 5874 5878 5881 5883 5886 5889 5893 5895 5897 5898 5900 5902 5904 5906 5908 5911 5912 5914 5915 5916 5918 5920 5922 5923 5925 5926 5928 5929 5930 5931 5932 5933 5934 5935 5936 5937 5938 5939 5940 5941 5942 5943 5944 5944 5945 5946 5946 5947 5947 5948 5948
5821 5821 5821 5824 5827 5829 5830 5831 5833 5837 5841 5844 5846 5848 5849 5852 5854 5856 5857 5858 5859 5860 5861 5862 5863 5864 5864 5865 5865 5865 5866 5867 5867 5868 5868 5870 5875 5879 5882 5884 5888 5891 5893 5896 5897 5899 5901 5903 5905 5907 5909 5911 5912 5914 5915 5917 5919 5920 5922 5924 5925 5927 5928 5929 5931 5932 5933 5934 5935 5936 5937 5938 5939 5940 5941 5941 5942 5943 5944 5944 5945 5946 5946 5947 5947 5948
5818 5819 5820 5823 5826 5828 5829 5830 5832 5835 5839 5842 5843 5845 5848 5851 5853 5854 5856 5857 5858 5859 5860 5861 5863 5863 5864 5864 5864 5864 5865 5866 5866 5866 5867 5869 5874 5878 5881 5883 5886 5889 5892 5895 5897 5899 5902 5903 5904 5906 5908 5909 5910 5912 5914 5916 5917 5919 5921 5923 5924 5926 5927 5929 5930 5931 5932 5934 5935 5936 5936 5937 5938 5939 5940 5941 5942 5942 5943 5944 5945 5945 5946 5946 5946 5947
5817 5818 5820 5823 5825 5826 5828 5831 5833 5836 5838 5841 5843 5845 5848 5850 5852 5854 5855 5856 5857 5858 5860 5861 5862 5863 5863 5863 5863 5863 5863 5864 5865 5866 5866 5868 5872 5876 5879 5881 5885 5888 5891 5894 5896 5898 5901 5902 5903 5904 5906 5907 5909 5910 5912 5914 5916 5918 5920 5921 5923 5924 5926 5927 5928 5930 5931 5932 5934 5935 5936 5937 5937 5938 5939 5940 5941 5942 5943 5943 5944 5944 5945 5945 5946 5946
5817 5818 5820 5822 5824 5826 5828 5831 5834 5835 5838 5841 5844 5846 5848 5850 5851 5853 5854 5856 5857 5858 5859 5861 5861 5862 5862 5863 5862 5862 5862 5862 5863 5864 5865 5867 5869 5873 5876 5880 5884 5887 5890 5892 5894 5896 5899 5901 5902 5904 5905 5906 5908 5910 5912 5913 5915 5917 5919 5920 5922 5923 5924 5925 5927 5928 5930 5931 5932 5934 5935 5936 5937 5938 5939 5939 5940 5941 5941 5942 5943 5943 5944 5944 5945 5945
5817 5818 5819 5822 5824 5826 5828 5830 5831 5833 5836 5840 5842 5844 5846 5848 5850 5852 5853 5855 5856 5858 5859 5860 5860 5861 5861 5862 5861 5861 5861 5861 5860 5860 5861 5863 5865 5869 5874 5878 5882 5885 5888 5890 5892 5894 5897 5899 5901 5903 5904 5906 5908 5909 5911 5912 5914 5916 5917 5919 5921 5922 5923 5924 5925 5927 5928 5930 5931 5932 5934 5935 5936 5937 5938 5938 5939 5939 5940 5941 5941 5942 5943 5944 5944 5945
5817 5817 5818 5821 5824 5826 5828 5828 5829 5831 5833 5837 5839 5841 5843 5846 5849 5851 5852 5854 5855 5857 5858 5859 5860 5860 5860 5861 5861 5860 5860 5859 5858 5856 5856 5857 5860 5865 5870 5875 5880 5883 5886 5888 5890 5892 5895 5897 5899 5901 5903 5905 5906 5908 5910 5912 5913 5914 5916 5918 5919 5921 5922 5923 5925 5926 5927 5928 5930 5931 5932 5933 5935 5936 5937 5937 5938 5938 5939 5939 5940 5941 5942 5942 5943 5944
5816 5815 5816 5820 5822 5824 5825 5826 5827 5828 5829 5832 5836 5839 5841 5844 5847 5849 5850 5852 5855 5856 5857 5858 5859 5859 5859 5860 5860 5860 5859 5859 5857 5855 5853 5855 5859 5863 5868 5874 5878 5881 5884 5886 5889 5891 5893 5895 5898 5900 5902 5903 5905 5907 5909 5910 5912 5913 5915 5916 5918 5919 5920 5922 5923 5925 5926 5927 5928 5929 5931 5932 5933 5934 5935 5936 5936 5937 5937 5938 5939 5939 5940 5941 5942 5943
5813 5812 5814 5817 5819 5820 5822 5824 5826 5827 5828 5830 5834 5838 5841 5843 5846 5847 5849 5851 5854 5855 5856 5857 5858 5858 5858 5859 5859 5859 5859 5858 5857 5856 5855 5857 5861 5865 5869 5873 5877 5880 5883 5885 5887 5889 5891 5894 5897 5899 5901 5902 5904 5906 5907 5909 5911 5912 5914 5915 5916 5917 5918 5920 5922 5923 5924 5925 5927 5928 5929 5930 5931 5932 5933 5934 5934 5935 5936 5936 5937 5938 5939 5940 5941 5942
5810 5811 5813 5815 5817 5820 5822 5824 5825 5826 5828 5830 5833 5836 5840 5843 5845 5846 5848 5851 5853 5853 5854 5855 5856 5857 5857 5858 5859 5859 5859 5859 5858 5858 5858 5860 5863 5867 5870 5873 5875 5878 5881 5883 5885 5888 5890 5892 5895 5898 5900 5902 5903 5904 5905 5906 5909 5910 5912 5913 5914 5915 5917 5918 5920 5921 5923 5924 5925 5926 5927 5928 5929 5930 5931 5932 5933 5934 5934 5935 5936 5937 5937 5938 5939 5940
5808 5810 5813 5815 5818 5821 5823 5825 5826 5827 5829 5832 5834 5835 5838 5841 5843 5845 5847 5849 5851 5852 5853 5854 5855 5856 5856 5857 5859 5859 5859 5860 5860 5860 5861 5862 5864 5867 5870 5872 5874 5876 5878 5880 5883 5886 5888 5891 5893 5896 5899 5900 5902 5902 5903 5904 5906 5908 5909 5911 5912 5913 5914 5916 5917 5919 5920 5922 5923 5924 5925 5926 5927 5928 5929 5930 5931 5932 5933 5934 5935 5935 5936 5937 5937 5938
5808 5810 5813 5815 5817 5820 5822 5825 5827 5828 5830 5833 5835 5835 5837 5839 5842 5843 5845 5847 5849 5851 5852 5853 5854 5855 5856 5857 5859 5859 5860 5860 5860 5861 5862 5863 5865 5866 5868 5870 5872 5873 5875 5876 5879 5881 5885 5888 5890 5893 5896 5898 5899 5900 5901 5902 5903 5905 5906 5908 5909 5911 5912 5913 5915 5916 5918 5919 5920 5921 5922 5923 5925 5926 5927 5929 5930 5931 5932 5933 5933 5934 5935 5935 5935 5935
5807 5810 5812 5814 5816 5819 5821 5824 5826 5828 5830 5832 5834 5835 5836 5837 5840 5842 5844 5846 5847 5849 5851 5852 5852 5854 5856 5857 5858 5858 5859 5860 5861 5861 5862 5863 5864 5866 5867 5868 5869 5870 5872 5873 5875 5877 5880 5884 5886 5889 5891 5894 5896 5897 5898 5900 5901 5902 5903 5904 5905 5907 5908 5910 5911 5913 5914 5916 5917 5918 5919 5920 5922 5923 5925 5926 5928 5929 5929 5930 5931 5932 5933 5933 5933 5934
5807 5810 5812 5812 5814 5817 5820 5822 5824 5826 5828 5829 5831 5832 5834 5836 5838 5840 5842 5844 5845 5847 5849 5850 5851 5853 5855 5856 5857 5857 5858 5859 5860 5860 5860 5861 5863 5864 5865 5866 5866 5866 5866 5868 5871 5873 5877 5880 5882 5884 5887 5889 5892 5893 5895 5897 5899 5900 5900 5901 5902 5904 5905 5907 5908 5909 5911 5912 5913 5914 5916 5917 5918 5920 5921 5923 5924 5925 5926 5927 5928 5929 5930 5930 5931 5931
5806 5809 5810 5811 5813 5816 5818 5820 5822 5824 5825 5827 5828 5829 5832 5834 5837 5839 5840 5842 5844 5846 5847 5848 5850 5852 5854 5855 5856 5856 5857 5858 5858 5859 5859 5860 5861 5863 5863 5863 5863 5862 5860 5860 5864 5869 5873 5876 5879 5881 5883 5886 5888 5890 5892 5894 5896 5898 5899 5900 5901 5903 5904 5906 5906 5907 5908 5909 5910 5911 5913 5914 5915 5917 5918 5920 5921 5922 5923 5924 5925 5925 5926 5927 5928 5928
5805 5807 5809 5810 5812 5814 5816 5818 5820 5822 5823 5824 5826 5828 5830 5833 5835 5837 5838 5840 5842 5844 5845 5847 5849 5851 5852 5853 5854 5855 5856 5857 5858 5858 5859 5860 5861 5862 5862 5862 5861 5861 5859 5859 5862 5868 5872 5875 5878 5880 5881 5883 5885 5887 5890 5892 5893 5895 5898 5899 5899 5900 5901 5902 5903 5904 5906 5907 5908 5910 5911 5912 5914 5915 5917 5917 5918 5919 5920 5921 5922 5923 5923 5924 5924 5925
5803 5804 5807 5809 5810 5812 5814 5816 5818 5820 5821 5823 5824 5827 5829 5831 5833 5835 5837 5838 5840 5842 5843 5845 5848 5849 5850 5851 5852 5854 5855 5856 5857 5857 5858 5859 5860 5861 5861 5861 5861 5861 5861 5861 5863 5867 5871 5874 5876 5878 5880 5881 5882 5884 5887 5889 5890 5892 5894 5895 5896 5897 5898 5898 5897 5899 5902 5905 5906 5906 5907 5909 5911 5913 5914 5915 5915 5916 5916 5917 5918 5919 5920 5921 5922 5923
5802 5802 5805 5807 5809 5811 5813 5815 5817 5819 5821 5822 5823 5825 5828 5830 5832 5834 5836 5837 5838 5840 5842 5843 5845 5847 5848 5849 5851 5852 5853 5855 5856 5856 5857 5858 5859 5860 5860 5861 5861 5861 5862 5863 5864 5866 5869 5871 5873 5875 5877 5878 5879 5881 5883 5884 5886 5887 5889 5890 5891 5893 5895 5896 5896 5897 5900 5903 5904 5905 5905 5906 5908 5909 5911 5911 5912 5912 5913 5914 5914 5915 5916 5917 5918 5920
5803 5802 5803 5806 5809 5810 5812 5814 5816 5818 5820 5821 5822 5824 5826 5828 5831 5833 5835 5836 5837 5838 5840 5842 5843 5845 5847 5848 5849 5851 5852 5854 5855 5855 5855 5856 5858 5859 5859 5859 5860 5860 5861 5863 5864 5866 5867 5868 5870 5872 5873 5874 5875 5877 5879 5880 5881 5882 5884 5886 5887 5888 5890 5893 5896 5897 5897 5899 5900 5902 5904 5904 5905 5906 5907 5907 5908 5909 5910 5911 5912 5912 5912 5913 5914 5915
5803 5803 5803 5804 5807 5809 5811 5813 5814 5817 5819 5820 5822 5823 5825 5827 5829 5832 5834 5836 5836 5837 5838 5840 5841 5843 5845 5847 5848 5850 5851 5852 5853 5854 5854 5855 5856 5857 5858 5858 5859 5859 5860 5861 5863 5864 5865 5867 5868 5869 5870 5870 5872 5873 5875 5876 5877 5878 5880 5882 5884 5885 5887 5889 5892 5894 5895 5895 5895 5898 5899 5900 5902 5903 5904 5904 5904 5905 5906 5907 5908 5909 5910 5911 5911 5911
5802 5802 5802 5803 5805 5807 5810 5812 5814 5816 5818 5819 5821 5823 5824 5826 5828 5830 5833 5835 5836 5836 5837 5838 5839 5841 5843 5845 5846 5848 5849 5851 5852 5852 5853 5854 5855 5856 5857 5857 5858 5858 5858 5859 5860 5862 5864 5865 5866 5866 5867 5866 5867 5868 5870 5872 5873 5874 5877 5879 5880 5882 5884 5885 5887 5889 5892 5892 5893 5894 5896 5897 5898 5900 5900 5901 5900 5900 5901 5903 5904 5906 5908 5909 5909 5909
5800 5801 5801 5801 5803 5804 5807 5810 5813 5815 5817 5818 5820 5822 5823 5825 5826 5829 5831 5833 5834 5835 5836 5837 5838 5839 5841 5843 5844 5845 5847 5848 5850 5850 5851 5852 5853 5854 5855 5856 5857 5858 5858 5858 5859 5860 5863 5864 5865 5864 5864 5863 5863 5864 5866 5867 5868 5870 5873 5874 5876 5878 5880 5880 5882 5886 5888 5889 5889 5891 5892 5893 5894 5895 5896 5896 5896 5896 5898 5899 5900 5902 5904 5905 5906 5906
5799 5799 5799 5800 5801 5802 5804 5807 5810 5813 5815 5816 5818 5820 5822 5823 5825 5827 5829 5831 5832 5833 5834 5835 5837 5838 5839 5841 5842 5843 5844 5846 5848 5849 5849 5850 5851 5852 5853 5855 5856 5857 5857 5857 5858 5859 5861 5862 5862 5861 5861 5862 5862 5862 5863 5864 5864 5866 5868 5870 5872 5874 5875 5877 5880 5883 5884 5884 5885 5886 5887 5888 5890 5890 5890 5891 5891 5893 5895 5896 5896 5897 5899 5900 5901 5902
5798 5798 5798 5798 5799 5800 5802 5804 5806 5809 5811 5813 5816 5818 5820 5822 5824 5825 5827 5829 5830 5831 5832 5833 5835 5836 5837 5838 5839 5840 5842 5843 5845 5846 5847 5848 5849 5850 5851 5852 5854 5855 5856 5856 5857 5857 5859 5860 5859 5858 5859 5861 5862 5862 5862 5862 5863 5863 5865 5867 5869 5870 5872 5874 5876 5878 5879 5879 5879 5880 5881 5883 5885 5885 5885 5885 5886 5888 5890 5892 5892 5893 5894 5895 5896 5897
5796 5797 5797 5797 5797 5799 5800 5802 5804 5806 5808 5810 5813 5815 5818 5820 5822 5822 5825 5827 5828 5830 5831 5832 5833 5834 5835 5835 5836 5838 5840 5841 5842 5844 5845 5846 5847 5847 5848 5850 5851 5852 5853 5854 5855 5855 5856 5857 5857 5857 5857 5859 5861 5861 5862 5861 5861 5862 5864 5866 5866 5867 5868 5870 5872 5873 5875 5875 5875 5875 5877 5879 5880 5881 5881 5881 5882 5884 5886 5887 5888 5888 5889 5890 5890 5891
5794 5795 5796 5796 5796 5797 5799 5800 5802 5803 5805 5808 5811 5813 5815 5817 5818 5820 5822 5824 5826 5828 5829 5830 5831 5832 5833 5833 5834 5835 5837 5838 5839 5841 5843 5844 5845 5845 5846 5847 5849 5850 5851 5851 5852 5853 5854 5855 5856 5856 5856 5856 5857 5858 5858 5858 5859 5860 5862 5863 5864 5865 5866 5868 5869 5871 5872 5872 5873 5874 5875 5876 5877 5878 5879 5878 5879 5880 5882 5882 5884 5884 5884 5885 5885 5885
5793 5794 5794 5795 5796 5796 5797 5798 5800 5802 5803 5806 5808 5810 5812 5813 5815 5818 5819 5820 5822 5825 5826 5827 5829 5830 5831 5831 5831 5832 5834 5835 5836 5838 5839 5841 5842 5843 5844 5845 5846 5847 5848 5848 5849 5850 5851 5852 5853 5855 5855 5855 5855 5855 5856 5856 5856 5857 5859 5860 5861 5863 5864 5866 5867 5869 5870 5870 5871 5872 5873 5874 5875 5876 5876 5877 5876 5877 5877 5878 5880 5881 5881 5881 5882 5882
5792 5793 5793 5794 5795 5795 5796 5797 5799 5800 5802 5803 5805 5807 5809 5810 5812 5814 5816 5818 5819 5822 5823 5824 5825 5827 5828 5829 5829 5830 5831 5832 5833 5834 5836 5837 5839 5840 5842 5842 5843 5844 5845 5846 5846 5847 5848 5849 5850 5852 5853 5854 5853 5854 5854 5854 5855 5855 5856 5858 5859 5860 5861 5863 5864 5865 5867 5868 5870 5870 5870 5871 5873 5873 5873 5874 5874 5874 5874 5875 5876 5877 5877 5877 5879 5879
5791 5791 5792 5793 5793 5794 5795 5796 5797 5798 5800 5801 5803 5805 5806 5808 5809 5811 5813 5815 5817 5819 5820 5822 5823 5823 5824 5826 5827 5827 5828 5829 5830 5831 5833 5834 5835 5837 5838 5839 5840 5841 5842 5843 5844 5844 5844 5845 5847 5848 5850 5851 5851 5852 5852 5852 5852 5853 5854 5855 5856 5857 5858 5859 5860 5861 5862 5864 5866 5866 5866 5867 5868 5869 5869 5871 5871 5870 5870 5871 5872 5872 5872 5872 5874 5875
5789 5790 5791 5792 5792 5793 5793 5794 5795 5796 5798 5799 5801 5802 5804 5805 5806 5808 5810 5813 5814 5816 5817 5819 5820 5821 5821 5823 5824 5825 5825 5826 5827 5828 5829 5830 5832 5833 5834 5836 5837 5838 5839 5840 5841 5842 5842 5843 5844 5845 5846 5847 5848 5849 5849 5849 5849 5849 5849 5851 5852 5853 5855 5856 5857 5858 5858 5859 5861 5862 5862 5862 5864 5865 5866 5867 5867 5867 5867 5868 5868 5868 5867 5867 5869 5870
5788 5789 5789 5790 5791 5791 5792 5792 5794 5795 5796 5798 5799 5800 5801 5802 5803 5805 5807 5809 5811 5813 5814 5816 5817 5818 5819 5820 5821 5822 5823 5823 5824 5824 5825 5827 5828 5830 5831 5832 5833 5834 5835 5836 5837 5838 5839 5840 5841 5842 5843 5844 5845 5846 5846 5846 5846 5846 5846 5847 5848 5850 5851 5852 5853 5854 5855 5856 5856 5858 5859 5859 5860 5861 5862 5863 5863 5864 5864 5864 5864 5863 5863 5863 5864 5865
5787 5788 5788 5788 5789 5789 5790 5791 5792 5793 5794 5796 5797 5798 5799 5799 5801 5802 5804 5806 5808 5809 5811 5812 5814 5816 5817 5818 5819 5820 5820 5821 5821 5822 5822 5823 5824 5826 5827 5829 5830 5831 5832 5833 5833 5834 5835 5837 5838 5839 5840 5841 5842 5842 5843 5844 5844 5844 5844 5845 5845 5846 5847 5848 5849 5850 5851 5852 5852 5853 5854 5855 5856 5856 5857 5858 5859 5860 5860 5860 5859 5859 5859 5859 5859 5860
5786 5786 5787 5787 5787 5788 5788 5789 5790 5791 5793 5794 5795 5796 5797 5797 5798 5799 5801 5802 5804 5805 5807 5809 5810 5812 5814 5816 5817 5818 5818 5818 5819 5819 5820 5820 5821 5822 5823 5825 5826 5828 5829 5829 5830 5831 5832 5833 5834 5835 5836 5837 5838 5839 5839 5840 5841 5842 5842 5842 5843 5843 5844 5844 5845 5845 5846 5847 5848 5848 5849 5850 5850 5851 5852 5853 5853 5855 5856 5856 5855 5855 5855 5855 5855 5856
5784 5785 5785 5786 5786 5786 5787 5787 5788 5789 5791 5792 5793 5794 5795 5795 5796 5797 5798 5799 5800 5801 5803 5805 5807 5808 5810 5812 5813 5814 5815 5816 5816 5817 5817 5817 5818 5818 5819 5820 5822 5823 5825 5826 5826 5827 5829 5829 5830 5830 5831 5833 5834 5834 5835 5836 5837 5837 5838 5839 5839 5839 5840 5839 5839 5840 5840 5841 5842 5842 5843 5844 5844 5845 5846 5847 5847 5848 5849 5850 5850 5850 5850 5850 5851 5851